This is the latest recevied weather packets stored in our database for station/object KR8N. If no packets are shown the sender has not sent any weather packets the latest 10 day(s).
| Time | Temp. | Humidity | Pressure | Rain* | Wind** | Luminosity | Snow |
|---|---|---|---|---|---|---|---|
| 1777726870 | 6.11° C | 73% | 1018.8 hPa | 0 mm | - | 173 W/m² | - |
| 1777726566 | 6.11° C | 76% | 1018.8 hPa | 0 mm | - | 182 W/m² | - |
| 1777726263 | 6.11° C | 73% | 1018.6 hPa | 0 mm | - | 210 W/m² | - |
| 1777725960 | 6.11° C | 76% | 1018.6 hPa | 0 mm | - | 198 W/m² | - |
| 1777725657 | 6.11° C | 76% | 1018.5 hPa | 0 mm | - | 152 W/m² | - |
| 1777725355 | 5.56° C | 77% | 1018.4 hPa | 0 mm | - | 181 W/m² | - |
| 1777725052 | 6.11° C | 78% | 1018.6 hPa | 0 mm | - | 169 W/m² | - |
| 1777724748 | 5.56° C | 79% | 1018.7 hPa | 0 mm | - | 175 W/m² | - |
| 1777724446 | 5.56° C | 80% | 1018.6 hPa | 0 mm | - | 97 W/m² | - |
| 1777724143 | 5.56° C | 80% | 1018.4 hPa | 0 mm | - | 78 W/m² | - |
| 1777723840 | 5° C | 84% | 1018.4 hPa | 0 mm | - | 84 W/m² | - |
| 1777723536 | 4.44° C | 86% | 1018.4 hPa | 0 mm | - | 70 W/m² | - |
| 1777723234 | 3.89° C | 88% | 1018.6 hPa | 0 mm | - | 66 W/m² | - |
| 1777722932 | 3.89° C | 89% | 1018.4 hPa | 0 mm | - | 60 W/m² | - |
| 1777722627 | 3.89° C | 92% | 1018.7 hPa | 0 mm | - | 64 W/m² | - |
| 1777722324 | 3.33° C | 95% | 1018.7 hPa | 0 mm | - | 59 W/m² | - |
| 1777722021 | 3.33° C | 95% | 1018.8 hPa | 0 mm | - | 69 W/m² | - |
| 1777721718 | 3.33° C | 96% | 1018.6 hPa | 0 mm | - | 58 W/m² | - |
| 1777721417 | 2.78° C | 96% | 1018.2 hPa | 0 mm | - | 51 W/m² | - |
| 1777721115 | 2.78° C | 96% | 1018.4 hPa | 0 mm | - | 51 W/m² | - |
| 1777720812 | 2.78° C | 95% | 1018.3 hPa | 0 mm | - | 40 W/m² | - |
| 1777720509 | 2.22° C | 95% | 1018.2 hPa | 0 mm | - | 36 W/m² | - |
| 1777720206 | 2.22° C | 95% | 1018 hPa | 0 mm | - | 32 W/m² | - |
| 1777719904 | 2.22° C | 95% | 1018.3 hPa | 0 mm | - | 29 W/m² | - |
| 1777719601 | 2.22° C | 95% | 1018.2 hPa | 0 mm | - | 21 W/m² | - |
* Rain latest hour (hover to see other rain measurements)
** Current wind speed in m/s (hover to see current wind gust speed)